TimeCST,TemperatureF,Dew PointF,Humidity,Sea Level PressureIn,VisibilityMPH,Wind Direction,Wind SpeedMPH,Gust SpeedMPH,PrecipitationIn,Events,Conditions,WindDirDegrees,DateUTC
12:15 AM,19.4,16.7,89,29.81,10.0,WNW,8.1,-,N/A,Snow,Light Snow,300,2013-02-22 06:15:00
12:35 AM,19.2,16.7,90,29.80,10.0,WNW,4.6,-,N/A,Snow,Light Snow,300,2013-02-22 06:35:00
12:55 AM,18.9,16.5,91,29.80,7.0,WNW,3.5,-,N/A,Snow,Light Snow,290,2013-02-22 06:55:00
1:15 AM,18.3,15.8,90,29.80,10.0,Calm,Calm,-,N/A,Snow,Light Snow,0,2013-02-22 07:15:00
1:35 AM,17.8,15.3,90,29.80,10.0,Calm,Calm,-,N/A,Snow,Light Snow,0,2013-02-22 07:35:00
1:55 AM,17.4,15.3,91,29.80,10.0,WNW,4.6,-,N/A,,Overcast,290,2013-02-22 07:55:00
2:15 AM,14.7,12.4,90,29.80,10.0,NNW,3.5,-,N/A,,Mostly Cloudy,330,2013-02-22 08:15:00
2:35 AM,11.8,9.7,91,29.80,10.0,North,6.9,-,N/A,,Scattered Clouds,350,2013-02-22 08:35:00
2:55 AM,8.1,5.5,89,29.80,10.0,WSW,9.2,-,N/A,,Clear,250,2013-02-22 08:55:00
3:35 AM,13.8,11.7,91,29.81,10.0,West,9.2,-,N/A,,Overcast,280,2013-02-22 09:35:00
3:55 AM,14.7,12.4,90,29.80,10.0,WNW,8.1,-,N/A,,Overcast,290,2013-02-22 09:55:00
4:15 AM,14.9,12.6,90,29.80,10.0,West,6.9,-,N/A,,Overcast,280,2013-02-22 10:15:00
4:35 AM,15.8,13.1,89,29.79,10.0,WNW,8.1,-,N/A,,Overcast,290,2013-02-22 10:35:00
4:55 AM,15.8,13.6,91,29.79,10.0,WNW,4.6,-,N/A,,Overcast,300,2013-02-22 10:55:00
5:15 AM,16.2,14.0,91,29.80,10.0,WNW,6.9,-,N/A,,Overcast,300,2013-02-22 11:15:00
5:35 AM,15.3,13.1,91,29.80,7.0,WNW,6.9,-,N/A,,Overcast,300,2013-02-22 11:35:00
5:55 AM,15.3,13.5,93,29.80,1.5,WNW,6.9,-,N/A,,Overcast,290,2013-02-22 11:55:00
6:15 AM,15.1,13.8,95,29.81,0.8,West,3.5,-,N/A,,Overcast,280,2013-02-22 12:15:00
6:35 AM,14.0,11.7,90,29.81,10.0,WSW,6.9,-,N/A,,Overcast,250,2013-02-22 12:35:00
6:55 AM,9.5,6.6,88,29.81,7.0,West,5.8,-,N/A,,Scattered Clouds,260,2013-02-22 12:55:00
7:35 AM,10.8,8.2,90,29.84,10.0,NW,8.1,-,N/A,,Mostly Cloudy,310,2013-02-22 13:35:00
7:55 AM,9.0,5.9,87,29.84,10.0,WNW,6.9,-,N/A,,Overcast,300,2013-02-22 13:55:00
8:15 AM,11.3,8.1,87,29.85,10.0,WNW,6.9,-,N/A,Snow,Light Snow,290,2013-02-22 14:15:00
8:35 AM,10.9,7.7,87,29.86,10.0,WNW,5.8,-,N/A,Snow,Light Snow,290,2013-02-22 14:35:00
8:55 AM,11.3,7.7,85,29.87,10.0,West,8.1,-,N/A,Snow,Light Snow,280,2013-02-22 14:55:00
9:15 AM,13.3,10.2,88,29.87,10.0,WNW,9.2,-,N/A,,Clear,290,2013-02-22 15:15:00
9:35 AM,15.4,12.0,86,29.87,10.0,NW,9.2,-,N/A,,Clear,310,2013-02-22 15:35:00
9:55 AM,16.9,12.9,84,29.88,10.0,WNW,9.2,-,N/A,,Clear,300,2013-02-22 15:55:00
10:15 AM,18.9,14.4,83,29.88,10.0,NW,6.9,-,N/A,,Clear,310,2013-02-22 16:15:00
10:35 AM,20.5,15.8,82,29.88,10.0,NW,5.8,-,N/A,,Clear,310,2013-02-22 16:35:00
10:55 AM,21.9,17.2,82,29.88,10.0,WNW,6.9,-,N/A,,Clear,300,2013-02-22 16:55:00
11:15 AM,23.2,18.1,81,29.88,10.0,WNW,9.2,-,N/A,,Clear,300,2013-02-22 17:15:00
11:35 AM,24.4,19.2,81,29.89,10.0,NW,6.9,-,N/A,,Clear,310,2013-02-22 17:35:00
11:55 AM,25.9,19.8,78,29.89,10.0,NW,9.2,-,N/A,,Clear,310,2013-02-22 17:55:00
12:15 PM,27.3,19.9,74,29.89,10.0,NW,10.4,-,N/A,,Clear,310,2013-02-22 18:15:00
12:35 PM,28.2,20.3,72,29.89,10.0,WNW,9.2,-,N/A,,Clear,300,2013-02-22 18:35:00
12:55 PM,29.5,21.2,71,29.88,10.0,NW,9.2,-,N/A,,Clear,310,2013-02-22 18:55:00
1:15 PM,31.1,20.3,64,29.88,10.0,NW,10.4,-,N/A,,Clear,310,2013-02-22 19:15:00
1:35 PM,31.5,20.8,65,29.87,10.0,NW,11.5,-,N/A,,Clear,320,2013-02-22 19:35:00
1:55 PM,32.0,21.2,64,29.87,10.0,NNW,11.5,-,N/A,,Clear,330,2013-02-22 19:55:00
2:15 PM,32.0,21.6,65,29.86,10.0,NW,11.5,-,N/A,,Clear,320,2013-02-22 20:15:00
2:35 PM,32.2,21.4,64,29.85,10.0,NW,11.5,-,N/A,,Clear,320,2013-02-22 20:35:00
2:55 PM,32.4,21.4,64,29.85,10.0,NW,11.5,-,N/A,,Clear,320,2013-02-22 20:55:00
3:15 PM,32.9,21.0,62,29.85,10.0,NW,11.5,-,N/A,,Clear,320,2013-02-22 21:15:00
3:35 PM,32.9,19.4,58,29.85,10.0,NW,10.4,-,N/A,,Clear,310,2013-02-22 21:35:00
3:55 PM,33.1,19.4,57,29.85,10.0,NNW,8.1,-,N/A,,Clear,330,2013-02-22 21:55:00
4:15 PM,33.4,20.3,59,29.84,10.0,NNW,9.2,-,N/A,,Clear,330,2013-02-22 22:15:00
4:35 PM,33.3,20.3,59,29.84,10.0,NNW,8.1,-,N/A,,Clear,330,2013-02-22 22:35:00
4:55 PM,32.9,18.9,56,29.84,10.0,NW,8.1,-,N/A,,Clear,320,2013-02-22 22:55:00
5:15 PM,32.4,19.6,59,29.84,10.0,NNW,8.1,-,N/A,,Clear,330,2013-02-22 23:15:00
5:35 PM,32.0,18.0,56,29.83,10.0,NNW,8.1,-,N/A,,Clear,330,2013-02-22 23:35:00
5:55 PM,30.7,18.0,59,29.83,10.0,North,6.9,-,N/A,,Clear,350,2013-02-22 23:55:00
6:15 PM,25.5,15.8,67,29.84,10.0,WNW,8.1,-,N/A,,Clear,300,2013-02-23 00:15:00
6:35 PM,25.7,15.6,66,29.84,10.0,WNW,8.1,-,N/A,,Clear,300,2013-02-23 00:35:00
6:55 PM,22.8,14.0,69,29.84,10.0,WNW,5.8,-,N/A,,Clear,300,2013-02-23 00:55:00
7:15 PM,21.7,13.6,71,29.85,10.0,WNW,6.9,-,N/A,,Clear,300,2013-02-23 01:15:00
7:35 PM,17.1,10.9,77,29.85,10.0,WNW,4.6,-,N/A,,Clear,290,2013-02-23 01:35:00
7:55 PM,17.1,10.6,76,29.85,10.0,West,9.2,-,N/A,,Clear,270,2013-02-23 01:55:00
8:15 PM,18.3,12.0,76,29.86,10.0,WSW,12.7,-,N/A,,Clear,250,2013-02-23 02:15:00
8:35 PM,23.9,14.7,68,29.85,10.0,West,11.5,20.7,N/A,,Clear,260,2013-02-23 02:35:00
8:55 PM,23.0,15.1,72,29.85,10.0,West,11.5,-,N/A,,Clear,260,2013-02-23 02:55:00
9:15 PM,20.7,16.2,83,29.85,10.0,WSW,11.5,-,N/A,,Clear,250,2013-02-23 03:15:00
9:35 PM,17.4,14.4,88,29.84,10.0,WSW,10.4,-,N/A,,Clear,250,2013-02-23 03:35:00
9:55 PM,18.0,15.1,88,29.84,10.0,WSW,11.5,-,N/A,,Scattered Clouds,240,2013-02-23 03:55:00
10:15 PM,19.4,15.4,85,29.84,10.0,WSW,11.5,-,N/A,,Scattered Clouds,240,2013-02-23 04:15:00
10:35 PM,18.9,15.6,87,29.83,7.0,WSW,12.7,-,N/A,,Clear,240,2013-02-23 04:35:00
10:55 PM,19.0,15.4,86,29.83,7.0,WSW,12.7,-,N/A,,Clear,240,2013-02-23 04:55:00
11:15 PM,18.5,15.1,86,29.83,7.0,WSW,10.4,-,N/A,,Clear,240,2013-02-23 05:15:00
11:35 PM,16.9,13.3,86,29.83,5.0,WSW,12.7,-,N/A,,Clear,250,2013-02-23 05:35:00
11:55 PM,14.7,11.5,87,29.83,7.0,WSW,10.4,-,N/A,,Clear,240,2013-02-23 05:55:00